CW2840 Weather Reports


Display with metric or nautical units.
time (UTC)temp
F
wind
direction
speed
MPH
gust
MPH
rain 1hr
in
rain 24hr
in
rain mn
in
humidity
%
barometer
mb
20260905201602 93 145 3.0 7.0 0.00 0.00 0.00 56 1011.7
20260905200105 94 123 5.0 11.0 0.00 0.00 0.00 55 1011.9
20260905194602 93 127 5.0 7.0 0.00 0.00 0.00 56 1012.0
20260905193754 93 113 5.0 7.0 0.00 0.00 0.00 58 1012.0
20260905191602 91 93 2.0 7.0 0.00 0.00 0.00 59 1012.4
20260905190104 91 337 1.0 9.0 0.00 0.00 0.00 59 1012.6
20260905184601 92 221 2.0 7.0 0.00 0.00 0.00 58 1012.7
20260905183103 92 141 2.0 9.0 0.00 0.03 0.00 57 1012.8
20260905181602 91 161 2.0 9.0 0.00 0.14 0.00 58 1013.2
20260905180811 90 202 2.0 5.0 0.00 0.14 0.00 61 1013.5
20260905175318 89 303 2.0 5.0 0.00 0.14 0.00 65 1013.8
20260905173104 88 312 2.0 7.0 0.00 0.14 0.00 65 1014.0
20260905171602 90 173 0.0 7.0 0.00 0.14 0.00 63 1014.1
20260905164602 87 209 1.0 3.0 0.00 0.14 0.00 67 1014.4
20260905163756 88 209 1.0 5.0 0.00 0.14 0.00 65 1014.5
20260905161601 89 165 2.0 5.0 0.00 0.14 0.00 68 1014.5
20260905160813 87 172 2.0 3.0 0.00 0.14 0.00 72 1014.6
20260905154602 86 172 0.0 3.0 0.00 0.14 0.00 73 1014.6
20260905153102 86 172 3.0 5.0 0.00 0.14 0.00 73 1014.7
20260905151603 85 172 2.0 5.0 0.00 0.14 0.00 76 1014.5
20260905144601 84 103 1.0 5.0 0.00 0.14 0.00 81 1014.5
20260905143103 83 103 2.0 5.0 0.00 0.14 0.00 83 1014.4
20260905141602 82 109 1.0 3.0 0.00 0.14 0.00 86 1014.4
20260905134602 79 109 0.0 5.0 0.00 0.14 0.00 90 1014.4
20260905133102 78 109 2.0 3.0 0.00 0.14 0.00 91 1014.3
20260905131603 78 109 1.0 5.0 0.00 0.14 0.00 91 1014.3
20260905124602 77 148 0.0 0.0 0.00 0.14 0.00 91 1013.9
20260905123102 76 148 0.0 0.0 0.00 0.14 0.00 91 1013.8
20260905121602 76 148 0.0 0.0 0.00 0.14 0.00 91 1013.7
20260905114602 76 148 0.0 0.0 0.00 0.14 0.00 91 1013.4
20260905113102 76 148 0.0 0.0 0.00 0.14 0.00 91 1013.2
20260905111602 76 148 0.0 3.0 0.00 0.14 0.00 90 1013.1
20260905104603 76 148 0.0 0.0 0.00 0.14 0.00 90 1012.8
20260905103102 76 148 0.0 0.0 0.00 0.14 0.00 90 1012.8
20260905101602 77 148 0.0 0.0 0.00 0.14 0.00 90 1012.8
20260905095311 77 148 0.0 2.0 0.00 0.14 0.00 90 1012.8
20260905093753 77 148 0.0 0.0 0.00 0.14 0.00 90 1012.7
20260905091602 77 148 0.0 0.0 0.00 0.14 0.00 90 1012.8
20260905084602 77 148 0.0 0.0 0.00 0.14 0.00 89 1012.7
20260905083103 77 148 0.0 2.0 0.00 0.14 0.00 89 1012.7
20260905081603 77 148 1.0 2.0 0.00 0.15 0.00 89 1012.7
20260905080809 77 148 0.0 0.0 0.00 0.15 0.00 89 1012.6
20260905075255 78 148 0.0 2.0 0.00 0.16 0.00 89 1012.8
20260905073103 78 148 0.0 2.0 0.00 0.17 0.00 88 1012.9
20260905071602 78 148 0.0 0.0 0.00 0.17 0.00 88 1012.9
20260905071512 78 148 0.0 0.0 0.00 0.17 0.00 88 1013.1
20260905065948 78 148 0.0 0.0 0.00 0.17 0.00 87 1013.3
20260905063102 78 148 0.0 2.0 0.00 0.17 0.00 87 1013.3
20260905061603 78 148 0.0 0.0 0.00 0.17 0.00 87 1013.4
20260905054602 79 148 0.0 0.0 0.00 0.17 0.00 86 1013.3
20260905053102 79 148 0.0 0.0 0.00 0.17 0.00 86 1013.5
20260905051602 79 148 0.0 3.0 0.00 0.17 0.00 87 1013.4
20260905044602 79 148 0.0 0.0 0.00 0.17 0.17 87 1013.3
20260905043102 79 148 0.0 2.0 0.00 0.17 0.17 86 1013.3
20260905041602 80 148 0.0 2.0 0.00 0.17 0.17 86 1013.5
20260905034602 80 148 0.0 2.0 0.00 0.17 0.17 84 1013.5
20260905033102 80 148 0.0 0.0 0.00 0.17 0.17 83 1013.6
20260905031602 81 148 0.0 2.0 0.00 0.17 0.17 82 1013.5
20260905024602 81 148 0.0 0.0 0.00 0.17 0.17 82 1013.6
20260905023049 81 148 0.0 2.0 0.00 0.17 0.17 82 1013.4
20260905021545 82 148 0.0 5.0 0.00 0.17 0.17 82 1013.4
20260905020732 81 145 0.0 2.0 0.00 0.17 0.17 81 1013.2
20260905014541 82 145 0.0 2.0 0.00 0.17 0.17 81 1012.9
20260905013038 82 145 0.0 0.0 0.00 0.17 0.17 80 1012.7
20260905012234 83 145 0.0 0.0 0.00 0.17 0.17 79 1012.5
20260905010035 83 145 0.0 0.0 0.00 0.17 0.17 76 1012.5
20260905005225 84 145 0.0 0.0 0.00 0.17 0.17 75 1012.4
20260905003032 85 145 0.0 2.0 0.00 0.17 0.17 73 1012.2
20260905001532 85 145 0.0 2.0 0.00 0.17 0.17 72 1012.3
20260905000031 86 145 0.0 7.0 0.00 0.17 0.17 70 1012.2
20260904234531 87 148 3.0 7.0 0.00 0.17 0.17 69 1012.1
20260904233032 87 149 3.0 7.0 0.00 0.17 0.17 68 1012.2
20260904232921 87 164 3.0 7.0 0.00 0.17 0.17 69 1012.4
20260904230029 86 161 3.0 11.0 0.00 0.17 0.17 70 1012.4
20260904224528 86 144 4.0 14.0 0.00 0.17 0.17 71 1012.4
20260904223025 87 190 8.0 16.0 0.00 0.17 0.17 69 1012.5
20260904221525 87 240 0.0 5.0 0.00 0.17 0.17 68 1012.3
20260904220022 88 243 0.0 2.0 0.00 0.17 0.17 66 1012.5
20260904214519 88 243 0.0 5.0 0.00 0.17 0.17 66 1012.4
20260904213017 88 244 1.0 3.0 0.00 0.17 0.17 68 1012.5
20260904211515 89 245 0.0 9.0 0.00 0.17 0.17 64 1012.6
20260904210714 89 149 3.0 11.0 0.00 0.17 0.17 66 1012.8
20260904204511 89 159 1.0 7.0 0.00 0.18 0.17 65 1013.1
20260904203009 90 183 4.0 7.0 0.00 0.19 0.17 66 1013.4